DW9110 Weather Reports


time (UTC)temp
F
wind
direction
speed
knots
gust
knots
rain 1hr
in
rain 24hr
in
rain mn
in
humidity
%
barometer
mb
20260510224512 66 326 0.9 7.8 0.00 0.51 0.00 36 1020.7
20260510223012 66 53 0.9 4.3 0.00 0.51 0.00 35 1020.5
20260510221510 67 286 0.9 7.0 0.00 0.51 0.00 34 1020.6
20260510220111 67 5 3.5 8.7 0.00 0.51 0.00 32 1020.5
20260510214511 67 330 0.9 8.7 0.00 0.51 0.00 34 1020.6
20260510213009 67 334 3.5 8.7 0.00 0.51 0.00 33 1020.6
20260510211508 68 323 2.6 8.7 0.00 0.51 0.00 32 1020.7
20260510210010 68 347 2.6 9.6 0.00 0.51 0.00 33 1020.8
20260510204508 69 32 1.7 8.7 0.00 0.51 0.00 32 1020.8
20260510203007 69 249 0.9 7.8 0.00 0.51 0.00 33 1020.7
20260510201506 69 355 0.9 7.0 0.00 0.51 0.00 32 1020.7
20260510200006 69 289 0.9 7.8 0.00 0.51 0.00 35 1020.8
20260510194505 69 315 0.9 7.0 0.00 0.51 0.00 33 1020.6
20260510193005 69 299 0.9 8.7 0.00 0.51 0.00 32 1020.7
20260510191504 69 355 1.7 8.7 0.00 0.51 0.00 32 1020.9
20260510190105 68 306 2.6 8.7 0.00 0.51 0.00 33 1020.8
20260510184602 67 278 1.7 9.6 0.00 0.51 0.00 33 1020.5
20260510183100 67 11 5.2 9.6 0.00 0.51 0.00 34 1020.3
20260510181607 66 288 2.6 8.7 0.00 0.51 0.00 33 1020.3
20260510180103 66 13 2.6 9.6 0.00 0.51 0.00 33 1020.4
20260510174555 67 13 3.5 7.8 0.00 0.51 0.00 33 1020.6
20260510173051 65 296 0.9 8.7 0.00 0.51 0.00 37 1020.9
20260510171557 65 322 2.6 8.7 0.00 0.51 0.00 35 1020.8
20260510170112 65 24 0.9 8.7 0.00 0.51 0.00 36 1021.0
20260510164559 65 51 1.7 13.0 0.00 0.51 0.00 36 1020.9
20260510163044 64 18 1.7 8.7 0.00 0.51 0.00 37 1020.7
20260510161541 64 355 0.9 7.8 0.00 0.51 0.00 39 1020.8
20260510160042 64 9 1.7 6.1 0.00 0.51 0.00 42 1020.9
20260510154535 62 41 0.9 8.7 0.00 0.51 0.00 45 1020.9
20260510153041 62 355 2.6 7.0 0.00 0.51 0.00 48 1020.6
20260510151534 60 9 0.0 5.2 0.00 0.51 0.00 51 1021.2
20260510150026 59 355 0.9 5.2 0.00 0.51 0.00 53 1020.9
20260510144524 59 348 0.0 1.7 0.00 0.51 0.00 56 1020.7
20260510143023 58 16 0.9 5.2 0.00 0.51 0.00 61 1020.6
20260510141518 56 355 0.9 5.2 0.00 0.51 0.00 64 1020.3
20260510140017 55 9 0.9 6.1 0.00 0.51 0.00 65 1020.1
20260510134516 55 5 1.7 6.1 0.00 0.51 0.00 66 1020.0
20260510133012 54 9 0.9 6.1 0.00 0.51 0.00 68 1019.5
20260510131509 53 360 0.0 5.2 0.00 0.51 0.00 69 1019.3
20260510130021 53 360 0.0 0.0 0.00 0.51 0.00 70 1019.1
20260510124505 53 360 0.0 3.5 0.00 0.51 0.00 70 1019.0
20260510123003 53 360 0.0 5.2 0.00 0.51 0.00 69 1018.8
20260510121501 53 324 0.0 0.0 0.00 0.51 0.00 69 1018.7
20260510120058 53 323 0.0 0.0 0.00 0.51 0.00 70 1018.5
20260510114601 52 323 0.0 0.0 0.00 0.51 0.00 72 1018.4
20260510113051 52 323 0.0 0.0 0.00 0.51 0.00 72 1017.9
20260510111547 52 323 0.0 0.0 0.00 0.51 0.00 72 1017.4
20260510110046 53 322 0.0 0.0 0.00 0.51 0.00 73 1017.3
20260510104548 53 322 0.0 0.0 0.00 0.51 0.00 73 1017.1
20260510103043 53 321 0.0 0.0 0.00 0.51 0.00 74 1016.9
20260510101541 53 332 0.0 3.5 0.00 0.51 0.00 76 1016.7
20260510100037 53 327 0.9 5.2 0.00 0.51 0.00 77 1016.3
20260510094535 53 340 0.0 0.0 0.00 0.51 0.00 78 1016.2
20260510093033 53 5 0.0 0.0 0.00 0.51 0.00 77 1015.9
20260510091535 54 355 0.0 0.0 0.00 0.51 0.00 77 1015.5
20260510090030 54 355 0.0 6.1 0.00 0.51 0.00 78 1015.5
20260510084525 54 342 0.0 3.5 0.00 0.51 0.00 80 1015.3
20260510083025 55 350 0.0 1.7 0.00 0.51 0.00 80 1014.9
20260510081520 56 347 0.0 3.5 0.00 0.51 0.00 81 1014.9
20260510080023 56 348 0.0 0.0 0.00 0.51 0.00 84 1014.9
20260510074517 56 5 0.0 0.0 0.00 0.52 0.00 86 1014.9
20260510073014 56 11 0.9 7.8 0.00 0.52 0.00 88 1014.6
20260510071518 56 17 0.0 0.0 0.00 0.52 0.00 89 1014.2
20260510070010 57 18 0.0 0.0 0.00 0.52 0.00 89 1014.1
20260510064524 57 18 0.0 0.0 0.00 0.52 0.00 89 1013.9
20260510063008 57 18 0.0 0.0 0.00 0.52 0.00 89 1013.9
20260510061510 58 18 0.0 0.0 0.00 0.52 0.00 88 1013.6
20260510060005 58 18 0.0 0.0 0.00 0.52 0.00 88 1013.7
20260510054559 59 18 0.0 0.0 0.00 0.52 0.00 87 1013.4
20260510053056 60 18 0.0 0.0 0.00 0.52 0.00 87 1013.3
20260510051557 60 18 0.0 0.0 0.00 0.52 0.00 86 1013.3
20260510050052 60 18 0.0 0.0 0.00 0.52 0.00 86 1013.0
20260510044550 60 19 0.0 0.9 0.00 0.52 0.52 86 1013.1
20260510043048 60 13 0.0 3.5 0.00 0.52 0.52 88 1012.6
20260510041546 60 11 0.0 6.1 0.00 0.52 0.52 89 1012.3
20260510040045 60 17 1.7 6.1 0.00 0.52 0.52 90 1012.0
20260510034547 60 5 0.0 4.3 0.00 0.52 0.52 90 1012.2
20260510033048 61 317 0.0 5.2 0.00 0.52 0.52 90 1012.0
20260510031540 61 12 0.0 0.0 0.00 0.52 0.52 90 1011.7
20260510030036 61 26 0.0 0.0 0.00 0.52 0.52 89 1011.2
20260510024536 61 27 0.0 0.0 0.01 0.52 0.52 89 1011.0
20260510023035 61 26 0.0 1.7 0.04 0.52 0.52 89 1010.6
20260510021534 61 38 0.0 0.9 0.12 0.52 0.52 89 1010.3
20260510020034 62 119 0.0 3.5 0.50 0.52 0.52 88 1010.2
20260510014534 62 279 0.0 7.8 0.50 0.52 0.51 87 1010.9
20260510013033 63 283 1.7 8.7 0.47 0.49 0.48 86 1011.2
20260510011530 65 22 7.8 18.2 0.39 0.41 0.40 79 1009.7
20260510010028 74 295 1.7 5.2 0.01 0.03 0.02 62 1007.8
20260510004530 75 246 0.0 0.0 0.00 0.04 0.01 57 1007.2
20260510003026 77 246 0.0 0.0 0.00 0.04 0.01 51 1007.3
20260510001527 78 246 0.0 0.0 0.00 0.04 0.01 51 1007.9
20260510000033 80 246 0.0 0.0 0.00 0.04 0.01 47 1007.9
20260509234537 79 246 0.0 1.7 0.00 0.07 0.01 44 1007.9
20260509233024 79 246 0.0 6.1 0.00 0.07 0.01 41 1008.0
20260509231524 79 261 2.6 7.8 0.00 0.07 0.01 40 1008.2
20260509230023 80 233 1.7 8.7 0.00 0.07 0.01 40 1007.5